OBJECT B, 61895

Orbit data source: Space-Track

You're viewing an Uncataloged Satellite

Recently launched and/or uncataloged satellites may have evolving metadata. Metadata may include but not limited to: Owner, Maufacturer, Bus, Motor, and Mission.

OBJECT B, 61895 is a satellite owned by CASC (CN) in SSO that was launched on Mon, 11 Nov 2024 UTC via a LIJIAN-1 launch vehicle from the Jiuquan Satellite Launch Center, China (JSC). Unknown objects in Earth's orbit typically refer to objects detected orbiting the Earth but have not yet been identified or cataloged. These objects could be anything from previously untracked satellites, spent rocket stages, debris from satellite collisions, or even natural meteoroids temporarily captured by Earth's gravity.

Loading next visibility...
Identifier
61895, 2024-205B
Orbit
SSO
Last TLE update
5 hours ago
Origin
Flag of CNCASC (CN / PRC)
Manufacturer
SECM?
Mission
Operational Defense Technology
Bus & Motor
Unknown
Mass
~100 kg wet, ~100 kg dry
Launch date (UTC)
2024-11-11 (8 months ago)
Launch vehicle
LIJIAN-1
Launch site
Jiuquan Satellite Launch Center, China (JSC)
Object type
Unknown
Shape & HBR
Box + 2 Pan, 5 m
Radar Cross Section
4.795 m², Medium (>0.1 m² and < 1m²)

Expand to show TLE details & history

TLE from 5 hours ago
0 OBJECT B
1 61895U 24205B   25182.18658714  .00006803  00000-0  30836-3 0  9990
2 61895  97.4490 257.0547 0012703 185.1414 174.9694 15.21097905 35165
Epoch: 2025-07-01T04:28Z
TLE epoch observation values (Epoch: 2025-07-01T04:28:41.128Z)
Latitude
0.00002°
Longitude
-89.60232°
Altitude
514.327 km
Speed
7.602 km/s
True Right ascension
17h 08m 13s
True Declination
0° 00' 00"
Sunlit
Object was in full shadow at epoch
Visualization orbit readout
Latitude
-22.94626°
Longitude
-86.2556°
Altitude
519.022 km
Speed
7.598 km/s
Apparent Right ascension
14h 04m 12s
Apparent Declination
-53° 24' 28"
Sunlit
Object is in full shadow
Visualization observer readout
Local Sidereal Time
20:45:01
Azimuth
226.951° WSW
Elevation
-36.599°
Doppler factor
1
Orbital elements
Apogee altitude
508.231 km
Perigee altitude
490.757 km
Semi-major axis
6,877.631 km
Eccentricity
0.00127
Inclination
97.449°
RAAN
257.0547°
Arg. of periapsis
185.1414°
True anomaly
Unknown
Mean anomaly
174.9694°
Eccentric anomaly
Unknown
Mean motion
3.80526 °/min
Orbital period
94.61 mins
BSTAR
0.00030836
Loading maneuver chart data...
Loading SW <> Apogee altitude chart data...
Loading historical data...
Loading historical data...
Loading historical data...
Loading historical data...
Loading historical data...
Loading historical data...
Loading historical data...

OBJECT B Visibility forecast

Observer location: undefined°, undefined°

Span
Click to sort rows by Start time (UTC) header in descending order
Start Az.
Max El. time (UTC)
Max El. Az.
Max El.
End time (UTC)
End Az.
6 mins2025-07-01 17:40:47.880Z23.332° NE2025-07-01 17:43:47.880Z134.142° SE39.408°2025-07-01 17:46:47.880Z181.034° SSW
4 mins2025-07-02 04:19:47.880Z95.981° ESE2025-07-02 04:20:47.880Z71.565° E21.762°2025-07-02 04:23:47.880Z16.617° NNE
4 mins2025-07-02 05:52:47.880Z228.721° WSW2025-07-02 05:54:47.880Z270.474° WNW19.278°2025-07-02 05:56:47.880Z308.077° NW
|